Location: Bastelaar
(51.0950°N, 3.8602°E)
Time: 07:00:48
(UTC+00:00)

YAOGAN 1 - Pass Details

Date: 18 November 2025
Orbit: 605 x 607 km, 97.8° (Epoch: 10 December)

Event Time Altitude Azimuth Distance (km) Brightness Sun altitude
Rises 18:18:27 0° 173° (S) 2,854 5.9 -22.5°
Reaches altitude 10° 18:20:38 10° 177° (S) 1,955 5.1 -22.9°
Maximum altitude 18:24:51 62° 259° (WSW) 689 2.9 -23.5°
Drops below altitude 10° 18:29:05 10° 340° (NNW) 1,970 5.3 -24.2°
Sets 18:31:18 0° 344° (NNW) 2,878 6.2 -24.6°
